Regional Weather Roundup
Issued by NWS

Home | Current Version | Previous Version | Text Only | Print | Product List | Glossary Off
Versions: 1 2 3 4 5 6 7 8 9 10 11 12 13 14 15 16 17 18 19 20 21 22 23 24 25 26 27 28 29 30 31 32 33 34 35 36 37 38 39 40 41 42 43 44 45 46 47 48 49 50

000
ASUS45 KCYS 140210
RWRWY

WYOMING REGIONAL WEATHER ROUNDUP
NATIONAL WEATHER SERVICE CHEYENNE WY
700 PM MST SAT FEB 13 2016

NOTE:  "FAIR" INDICATES FEW OR NO CLOUDS BELOW 12,000 FEET
WITH NO SIGNIFICANT WEATHER AND/OR OBSTRUCTIONS TO VISIBILITY.

WYZ001-140300-
YELLOWSTONE NATIONAL PARK

CITY           SKY/WX    TMP DP  RH WIND       PRES   REMARKS
LK YELLOWSTONE   N/A     22  14  71 VRB5      30.16R WCI  16
W YELLOWSTONE  NOT AVBL

$$
WYZ002>013-054>058-071-098>099-140300-
NORTHERN WYOMING

CITY           SKY/WX    TMP DP  RH WIND       PRES   REMARKS
JACKSON        MOCLDY    30  23  74 S14       30.18S WCI  20
CODY           FAIR      41   9  26 W12G24    30.03R
GREYBULL       FAIR      40  19  43 NW16      30.03R WCI  31
WORLAND        FAIR      35  22  58 CALM      30.04R
SHERIDAN       PTCLDY    39  21  48 W15       29.98R WCI  31
BUFFALO        FAIR      38  17  42 NW13      30.00R WCI  30
GILLETTE       FLURRIES  34  30  85 W15G25    29.97R WCI  24
HULETT         MOCLDY    34  32  93 W13G20    29.93S WCI  25
NEWCASTLE      MIX PCPN  32  32 100 NW16G23   29.92R WCI  21

$$
WYZ014>020-022>026-101>103-140300-
CENTRAL WYOMING

CITY           SKY/WX    TMP DP  RH WIND       PRES   REMARKS
BIG PINEY      FAIR      28  17  63 N12       30.18F WCI  18
PINEDALE         N/A     27  19  74 W7        30.18F WCI  19
DUBOIS         FAIR      28  12  50 NW22G35   30.08S WCI  15
LANDER         FAIR      35  19  52 W10       30.07R WCI  27
RIVERTON       FAIR      38  16  40 W33G44    30.06F WCI  25
CASPER         FAIR      32  25  75 W13       30.06R WCI  22
DOUGLAS        FLURRIES  34  29  82 W15       30.04S WCI  24

$$
WYZ021-027>030-104>119-140300-
SOUTHERN WYOMING

CITY           SKY/WX    TMP DP  RH WIND       PRES   REMARKS
EVANSTON       FAIR      33  22  63 W18       30.25S WCI  22
FORT BRIDGER   CLEAR     34  27  75 W14       30.26R WCI  24
ROCK SPRINGS   FAIR      34  15  46 W22G30    30.15S WCI  22
DIXON          FAIR      28  20  72 NW3       30.20R
RAWLINS        FAIR      34  23  64 W25G35    30.10R WCI  21
SARATOGA       FAIR      34  27  75 W15G24    30.14R WCI  24
LARAMIE        FAIR      37  18  46 W37G53    30.02R WCI  23
CHEYENNE       FAIR      44  15  31 NW21G32   29.99R
TORRINGTON     LGT RAIN  36  31  82 N25G46    29.98R WCI  24
PINE BLUFFS    FAIR      45  19  36 NW23G29   29.95R

$$



USA.gov is the U.S. government's official web portal to all federal, state and local government web resources and services.